Time,TemperatureF,DewpointF,PressureIn,WindDirection,WindDirectionDegrees,WindSpeedMPH,WindSpeedGustMPH,Humidity,HourlyPrecipIn,Conditions,Clouds,dailyrainin,SoftwareType,DateUTC
2013-06-24 00:02:00,70.0,68.0,30.27,South,183,0.0,0.0,93,0.00,,,0.00,,2013-06-24 04:02:00,
2013-06-24 00:12:00,70.0,68.0,30.27,South,183,0.0,0.0,93,0.00,,,0.00,,2013-06-24 04:12:00,
2013-06-24 00:22:00,69.0,67.0,30.27,South,183,0.0,0.0,94,0.00,,,0.00,,2013-06-24 04:22:00,
2013-06-24 00:33:00,69.0,67.0,30.27,South,183,0.0,0.0,94,0.00,,,0.00,,2013-06-24 04:33:00,
2013-06-24 00:43:00,69.0,67.0,30.27,South,183,0.0,0.0,94,0.00,,,0.00,,2013-06-24 04:43:00,
2013-06-24 00:52:00,69.0,67.0,30.27,South,183,0.0,0.0,94,0.00,,,0.00,,2013-06-24 04:52:00,
2013-06-24 01:02:00,69.0,67.0,30.27,South,183,0.0,0.0,94,0.00,,,0.00,,2013-06-24 05:02:00,
2013-06-24 01:12:00,69.0,67.0,30.27,South,183,0.0,0.0,94,0.00,,,0.00,,2013-06-24 05:12:00,
2013-06-24 01:22:00,69.0,68.0,30.27,South,183,0.0,0.0,95,0.00,,,0.00,,2013-06-24 05:22:00,
2013-06-24 01:36:00,69.0,68.0,30.27,South,183,0.0,0.0,95,0.00,,,0.00,,2013-06-24 05:36:00,
2013-06-24 01:46:00,69.0,68.0,30.27,South,183,0.0,0.0,95,0.00,,,0.00,,2013-06-24 05:46:00,
2013-06-24 01:53:00,69.0,68.0,30.26,South,183,0.0,0.0,95,0.00,,,0.00,,2013-06-24 05:53:00,
2013-06-24 02:07:00,69.0,68.0,30.26,South,183,0.0,0.0,95,0.00,,,0.00,,2013-06-24 06:07:00,
2013-06-24 02:14:00,69.0,68.0,30.26,South,183,0.0,0.0,95,0.00,,,0.00,,2013-06-24 06:14:00,
2013-06-24 02:23:00,69.0,68.0,30.26,South,183,0.0,0.0,95,0.00,,,0.00,,2013-06-24 06:23:00,
2013-06-24 02:36:00,69.0,68.0,30.26,South,183,0.0,0.0,95,0.00,,,0.00,,2013-06-24 06:36:00,
2013-06-24 02:45:00,69.0,68.0,30.25,South,183,0.0,0.0,95,0.00,,,0.00,,2013-06-24 06:45:00,
2013-06-24 03:05:00,69.0,68.0,30.25,South,183,0.0,0.0,95,0.00,,,0.00,,2013-06-24 07:05:00,
2013-06-24 03:14:00,69.0,68.0,30.24,South,183,0.0,0.0,95,0.00,,,0.00,,2013-06-24 07:14:00,
2013-06-24 03:29:00,69.0,68.0,30.24,South,183,0.0,0.0,95,0.00,,,0.00,,2013-06-24 07:29:00,
2013-06-24 03:37:00,68.0,67.0,30.25,South,183,0.0,0.0,95,0.00,,,0.00,,2013-06-24 07:37:00,
2013-06-24 03:47:00,68.0,67.0,30.25,South,183,0.0,0.0,95,0.00,,,0.00,,2013-06-24 07:47:00,
2013-06-24 03:54:00,68.0,67.0,30.25,South,183,0.0,0.0,95,0.00,,,0.00,,2013-06-24 07:54:00,
2013-06-24 04:04:00,68.0,67.0,30.25,South,183,0.0,0.0,95,0.00,,,0.00,,2013-06-24 08:04:00,
2013-06-24 04:14:00,68.0,67.0,30.26,South,183,0.0,0.0,95,0.00,,,0.00,,2013-06-24 08:14:00,
2013-06-24 04:26:00,68.0,67.0,30.25,South,183,0.0,0.0,95,0.00,,,0.00,,2013-06-24 08:26:00,
2013-06-24 04:35:00,68.0,67.0,30.25,South,183,0.0,0.0,95,0.00,,,0.00,,2013-06-24 08:35:00,
2013-06-24 04:46:00,68.0,67.0,30.25,South,183,0.0,0.0,95,0.00,,,0.00,,2013-06-24 08:46:00,
2013-06-24 04:52:00,68.0,67.0,30.25,South,183,0.0,0.0,96,0.00,,,0.00,,2013-06-24 08:52:00,
2013-06-24 05:15:00,68.0,67.0,30.25,South,183,0.0,0.0,96,0.00,,,0.00,,2013-06-24 09:15:00,
2013-06-24 05:37:00,68.0,67.0,30.26,South,183,0.0,0.0,96,0.00,,,0.00,,2013-06-24 09:37:00,
2013-06-24 05:47:00,68.0,67.0,30.26,South,183,0.0,0.0,96,0.00,,,0.00,,2013-06-24 09:47:00,
2013-06-24 05:55:00,68.0,67.0,30.27,South,183,0.0,0.0,96,0.00,,,0.00,,2013-06-24 09:55:00,
2013-06-24 06:05:00,68.0,67.0,30.27,South,183,0.0,0.0,96,0.00,,,0.00,,2013-06-24 10:05:00,
2013-06-24 06:14:00,68.0,67.0,30.27,South,183,0.0,0.0,96,0.00,,,0.00,,2013-06-24 10:14:00,
2013-06-24 06:24:00,68.0,67.0,30.27,South,183,0.0,0.0,96,0.00,,,0.00,,2013-06-24 10:24:00,
2013-06-24 06:37:00,68.0,67.0,30.27,South,183,0.0,0.0,96,0.00,,,0.00,,2013-06-24 10:37:00,
2013-06-24 06:49:00,68.0,67.0,30.28,South,183,0.0,0.0,97,0.00,,,0.00,,2013-06-24 10:49:00,
2013-06-24 06:54:00,68.0,67.0,30.27,South,183,0.0,0.0,96,0.00,,,0.00,,2013-06-24 10:54:00,
2013-06-24 07:03:00,68.0,67.0,30.27,South,183,0.0,0.0,96,0.00,,,0.00,,2013-06-24 11:03:00,
2013-06-24 07:29:00,68.0,67.0,30.28,South,183,0.0,0.0,97,0.00,,,0.00,,2013-06-24 11:29:00,
2013-06-24 07:34:00,69.0,68.0,30.28,South,183,0.0,0.0,97,0.00,,,0.00,,2013-06-24 11:34:00,
2013-06-24 07:46:00,69.0,68.0,30.28,South,183,0.0,0.0,97,0.00,,,0.00,,2013-06-24 11:46:00,
2013-06-24 07:55:00,69.0,68.0,30.29,South,183,0.0,0.0,97,0.00,,,0.00,,2013-06-24 11:55:00,
2013-06-24 08:16:00,69.0,68.0,30.28,South,183,0.0,0.0,97,0.00,,,0.00,,2013-06-24 12:16:00,
2013-06-24 08:23:00,69.0,68.0,30.29,South,183,0.0,0.0,97,0.00,,,0.00,,2013-06-24 12:23:00,
2013-06-24 08:36:00,70.0,69.0,30.29,South,183,0.0,0.0,97,0.00,,,0.00,,2013-06-24 12:36:00,
2013-06-24 08:53:00,70.0,69.0,30.30,South,183,0.0,0.0,97,0.00,,,0.00,,2013-06-24 12:53:00,
2013-06-24 09:06:00,70.0,69.0,30.31,South,182,0.0,1.0,97,0.00,,,0.00,,2013-06-24 13:06:00,
2013-06-24 09:56:00,71.0,70.0,30.32,South,182,0.0,0.0,96,0.00,,,0.00,,2013-06-24 13:56:00,
2013-06-24 10:03:00,71.0,69.0,30.33,South,182,0.0,0.0,95,0.00,,,0.00,,2013-06-24 14:03:00,
2013-06-24 10:24:00,72.0,70.0,30.33,South,182,0.0,0.0,93,0.00,,,0.00,,2013-06-24 14:24:00,
2013-06-24 10:37:00,72.0,70.0,30.33,South,182,0.0,0.0,94,0.00,,,0.00,,2013-06-24 14:37:00,
2013-06-24 10:45:00,72.0,70.0,30.33,South,180,0.0,0.0,93,0.00,,,0.00,,2013-06-24 14:45:00,
2013-06-24 10:56:00,72.0,70.0,30.33,South,179,0.0,0.0,92,0.00,,,0.00,,2013-06-24 14:56:00,
2013-06-24 11:14:00,73.0,70.0,30.33,South,180,0.0,0.0,91,0.00,,,0.00,,2013-06-24 15:14:00,
2013-06-24 11:27:00,73.0,70.0,30.33,South,180,0.0,0.0,89,0.00,,,0.00,,2013-06-24 15:27:00,
2013-06-24 11:36:00,74.0,71.0,30.32,South,179,0.0,0.0,89,0.00,,,0.00,,2013-06-24 15:36:00,
2013-06-24 11:45:00,74.0,70.0,30.32,South,180,0.0,0.0,88,0.00,,,0.00,,2013-06-24 15:45:00,
2013-06-24 11:54:00,75.0,71.0,30.32,South,169,0.0,1.0,88,0.00,,,0.00,,2013-06-24 15:54:00,
2013-06-24 12:15:00,76.0,71.0,30.31,South,170,0.0,1.0,85,0.00,,,0.00,,2013-06-24 16:15:00,
2013-06-24 12:24:00,77.0,70.0,30.31,SSW,213,0.0,2.0,79,0.00,,,0.00,,2013-06-24 16:24:00,
2013-06-24 12:36:00,79.0,72.0,30.30,South,169,0.0,0.0,79,0.00,,,0.00,,2013-06-24 16:36:00,
2013-06-24 12:43:00,80.0,71.0,30.30,South,169,0.0,1.0,73,0.00,,,0.00,,2013-06-24 16:43:00,
2013-06-24 12:55:00,81.0,71.0,30.30,South,172,0.0,2.0,72,0.00,,,0.00,,2013-06-24 16:55:00,
2013-06-24 13:24:00,82.0,72.0,30.29,South,180,0.0,1.0,73,0.00,,,0.00,,2013-06-24 17:24:00,
2013-06-24 13:35:00,81.0,71.0,30.29,South,180,0.0,0.0,72,0.00,,,0.00,,2013-06-24 17:35:00,
2013-06-24 13:46:00,81.0,72.0,30.28,South,180,0.0,1.0,73,0.00,,,0.00,,2013-06-24 17:46:00,
2013-06-24 13:55:00,81.0,71.0,30.27,South,180,0.0,0.0,72,0.00,,,0.00,,2013-06-24 17:55:00,
2013-06-24 14:02:00,82.0,72.0,30.27,SSE,157,0.0,1.0,72,0.00,,,0.00,,2013-06-24 18:02:00,
2013-06-24 14:25:00,82.0,72.0,30.26,SE,139,0.0,2.0,71,0.00,,,0.00,,2013-06-24 18:25:00,
2013-06-24 14:36:00,82.0,72.0,30.25,SSE,148,0.0,3.0,71,0.00,,,0.00,,2013-06-24 18:36:00,
2013-06-24 14:46:00,83.0,72.0,30.25,SSE,148,0.0,1.0,69,0.00,,,0.00,,2013-06-24 18:46:00,
2013-06-24 14:53:00,83.0,72.0,30.24,South,170,0.0,2.0,69,0.00,,,0.00,,2013-06-24 18:53:00,
2013-06-24 15:06:00,84.0,72.0,30.23,East,80,0.0,1.0,67,0.00,,,0.00,,2013-06-24 19:06:00,
2013-06-24 15:13:00,84.0,72.0,30.23,SE,145,0.0,2.0,67,0.00,,,0.00,,2013-06-24 19:13:00,
2013-06-24 15:25:00,85.0,72.0,30.23,SSE,153,0.0,3.0,66,0.00,,,0.00,,2013-06-24 19:25:00,
2013-06-24 15:36:00,85.0,72.0,30.23,SSE,157,0.0,2.0,66,0.00,,,0.00,,2013-06-24 19:36:00,
2013-06-24 15:54:00,83.0,72.0,30.23,SSE,148,0.0,3.0,69,0.00,,,0.00,,2013-06-24 19:54:00,
2013-06-24 16:05:00,83.0,72.0,30.22,SE,146,0.0,1.0,70,0.00,,,0.00,,2013-06-24 20:05:00,
2013-06-24 16:45:00,82.0,72.0,30.23,South,185,0.0,0.0,72,0.00,,,0.00,,2013-06-24 20:45:00,
2013-06-24 16:54:00,82.0,73.0,30.23,South,184,0.0,0.0,74,0.00,,,0.00,,2013-06-24 20:54:00,
2013-06-24 17:46:00,79.0,73.0,30.22,SSE,149,0.0,3.0,83,0.00,,,0.00,,2013-06-24 21:46:00,
2013-06-24 17:53:00,79.0,73.0,30.22,SSE,163,0.0,6.0,83,0.00,,,0.00,,2013-06-24 21:53:00,
2013-06-24 18:05:00,79.0,73.0,30.22,South,178,0.0,2.0,81,0.00,,,0.00,,2013-06-24 22:05:00,
2013-06-24 18:47:00,78.0,72.0,30.20,South,176,0.0,0.0,81,0.00,,,0.00,,2013-06-24 22:47:00,
2013-06-24 18:55:00,78.0,72.0,30.20,South,188,0.0,5.0,82,0.00,,,0.00,,2013-06-24 22:55:00,
2013-06-24 19:05:00,78.0,72.0,30.20,South,183,0.0,5.0,82,0.00,,,0.00,,2013-06-24 23:05:00,
2013-06-24 19:14:00,78.0,72.0,30.20,SSE,166,0.0,3.0,82,0.00,,,0.00,,2013-06-24 23:14:00,
2013-06-24 19:27:00,77.0,71.0,30.20,SSE,166,0.0,0.0,82,0.00,,,0.00,,2013-06-24 23:27:00,
2013-06-24 19:34:00,77.0,71.0,30.20,SSE,166,0.0,0.0,82,0.00,,,0.00,,2013-06-24 23:34:00,
2013-06-24 19:45:00,77.0,71.0,30.21,SSE,166,0.0,0.0,82,0.00,,,0.00,,2013-06-24 23:45:00,
2013-06-24 19:53:00,77.0,71.0,30.21,SSE,166,0.0,0.0,83,0.00,,,0.00,,2013-06-24 23:53:00,
2013-06-24 20:12:00,77.0,72.0,30.22,SSE,166,0.0,0.0,84,0.00,,,0.00,,2013-06-25 00:12:00,
2013-06-24 20:24:00,77.0,72.0,30.22,SSE,165,0.0,0.0,86,0.00,,,0.00,,2013-06-25 00:24:00,
2013-06-24 20:34:00,76.0,71.0,30.23,SSE,165,0.0,0.0,85,0.00,,,0.00,,2013-06-25 00:34:00,
2013-06-24 20:54:00,76.0,71.0,30.24,SSE,165,0.0,0.0,84,0.00,,,0.00,,2013-06-25 00:54:00,
2013-06-24 21:04:00,76.0,71.0,30.24,SSE,166,0.0,0.0,85,0.00,,,0.00,,2013-06-25 01:04:00,
2013-06-24 21:16:00,75.0,70.0,30.24,SSE,165,0.0,0.0,85,0.00,,,0.00,,2013-06-25 01:16:00,
2013-06-24 21:24:00,75.0,71.0,30.24,SSE,166,0.0,0.0,86,0.00,,,0.00,,2013-06-25 01:24:00,
2013-06-24 21:36:00,75.0,71.0,30.24,SSE,165,0.0,0.0,87,0.00,,,0.00,,2013-06-25 01:36:00,
2013-06-24 21:55:00,74.0,70.0,30.24,SSE,166,0.0,0.0,88,0.00,,,0.00,,2013-06-25 01:55:00,
2013-06-24 22:05:00,73.0,69.0,30.23,SSE,166,0.0,0.0,88,0.00,,,0.00,,2013-06-25 02:05:00,
2013-06-24 22:56:00,71.0,68.0,30.22,SSE,166,0.0,0.0,90,0.00,,,0.00,,2013-06-25 02:56:00,
2013-06-24 23:07:00,71.0,68.0,30.22,SSE,166,0.0,0.0,90,0.00,,,0.00,,2013-06-25 03:07:00,
2013-06-24 23:59:00,69.0,67.0,30.24,SSE,166,0.0,0.0,93,0.00,,,0.00,,2013-06-25 03:59:00,